ProjectID,Date,Electric Generation,Electric Utility Import,Facility Electric Load
,YYYY-MM-DD,kW,kW,kW
1030,2019-07-30,151.94782608695652,,151.94782608695652
1030,2019-07-31,328.0208333333333,,328.0208333333333
1030,2019-08-01,331.8,,331.8
1030,2019-08-02,340.98749999999995,,340.98749999999995
1030,2019-08-03,337.99999999999994,,337.99999999999994
1030,2019-08-04,309.85833333333335,,309.85833333333335
1030,2019-08-05,295.75,,295.75
1030,2019-08-06,189.47083333333333,,189.47083333333333
1030,2019-08-07,126.96666666666665,,126.96666666666665
1030,2019-08-08,165.6625,,165.6625
1030,2019-08-09,312.7083333333333,,312.7083333333333
1030,2019-08-10,309.1375,,309.1375
1030,2019-08-11,328.31250000000006,,328.31250000000006
1030,2019-08-12,206.025,,206.025
1030,2019-08-13,295.8875,,295.8875
1030,2019-08-14,335.45,,335.45
1030,2019-08-15,264.1125,,264.1125
1030,2019-08-16,238.67499999999998,,238.67499999999998
1030,2019-08-17,140.375,,140.375
1030,2019-08-18,263.7041666666667,,263.7041666666667
1030,2019-08-19,270.3416666666667,,270.3416666666667
1030,2019-08-20,312.2375,,312.2375
1030,2019-08-21,247.9333333333334,,247.9333333333334
1030,2019-08-22,226.65,,226.65
1030,2019-08-23,312.3958333333333,,312.3958333333333
1030,2019-08-24,234.17083333333338,,234.17083333333338
1030,2019-08-25,283.7875000000001,,283.7875000000001
1030,2019-08-26,303.2083333333333,,303.2083333333333
1030,2019-08-27,117.0166666666667,,117.0166666666667
1030,2019-08-28,234.82083333333333,,234.82083333333333
1030,2019-08-29,252.98750000000004,,252.98750000000004
1030,2019-08-30,314.9291666666666,,314.9291666666666
1030,2019-08-31,297.6,,297.6
1030,2019-09-01,111.94166666666666,,111.94166666666666
1030,2019-09-02,202.04166666666663,,202.04166666666663
1030,2019-09-03,223.26250000000005,,223.26250000000005
1030,2019-09-04,192.74583333333328,,192.74583333333328
1030,2019-09-05,272.18333333333334,,272.18333333333334
1030,2019-09-06,215.71249999999998,,215.71249999999998
1030,2019-09-07,210.61666666666667,,210.61666666666667
1030,2019-09-08,219.14166666666668,,219.14166666666668
1030,2019-09-09,209.27916666666667,,209.27916666666667
1030,2019-09-10,243.85000000000002,,243.85000000000002
1030,2019-09-11,228.05833333333337,,228.05833333333337
1030,2019-09-12,160.48749999999998,,160.48749999999998
1030,2019-09-13,226.50416666666663,,226.50416666666663
1030,2019-09-14,258.69166666666666,,258.69166666666666
1030,2019-09-15,101.65833333333335,,101.65833333333335
1030,2019-09-16,201.88749999999996,,201.88749999999996
1030,2019-09-17,314.4166666666667,,314.4166666666667
1030,2019-09-18,299.4791666666667,,299.4791666666667
1030,2019-09-19,298.8,,298.8
1030,2019-09-20,293.00416666666666,,293.00416666666666
1030,2019-09-21,264.5916666666667,,264.5916666666667
1030,2019-09-22,209.62916666666672,,209.62916666666672
1030,2019-09-23,80.675,,80.675
1030,2019-09-24,0.0,,0.0
1030,2019-09-25,267.7,,267.7
1030,2019-09-26,168.17083333333332,,168.17083333333332
1030,2019-09-27,271.36249999999995,,271.36249999999995
1030,2019-09-28,93.19583333333333,,93.19583333333333
1030,2019-09-29,203.57916666666665,,203.57916666666665
1030,2019-09-30,120.9333333333333,,120.9333333333333
1030,2019-10-01,229.4708333333333,,229.4708333333333
1030,2019-10-02,41.05,,41.05
1030,2019-10-03,50.67083333333334,,50.67083333333334
1030,2019-10-04,85.99583333333335,,85.99583333333335
1030,2019-10-05,269.4,,269.4
1030,2019-10-06,114.96666666666665,,114.96666666666665
1030,2019-10-07,82.20416666666667,,82.20416666666667
1030,2019-10-08,251.79166666666666,,251.79166666666666
1030,2019-10-09,261.9708333333333,,261.9708333333333
1030,2019-10-10,266.84999999999997,,266.84999999999997
1030,2019-10-11,276.37916666666666,,276.37916666666666
1030,2019-10-12,127.76666666666667,,127.76666666666667
1030,2019-10-13,265.9291666666667,,265.9291666666667
1030,2019-10-14,68.41666666666666,,68.41666666666666
1030,2019-10-15,237.5375,,237.5375
1030,2019-10-16,27.445833333333336,,27.445833333333336
1030,2019-10-17,23.308333333333334,,23.308333333333334
1030,2019-10-18,164.15833333333333,,164.15833333333333
1030,2019-10-19,242.54583333333332,,242.54583333333332
1030,2019-10-20,212.45833333333334,,212.45833333333334
1030,2019-10-21,220.69166666666663,,220.69166666666663
1030,2019-10-22,25.708333333333343,,25.708333333333343
1030,2019-10-23,159.4083333333334,,159.4083333333334
1030,2019-10-24,50.949999999999996,,50.949999999999996
1030,2019-10-25,65.4875,,65.4875
1030,2019-10-26,132.65833333333333,,132.65833333333333
1030,2019-10-27,46.40416666666666,,46.40416666666666
1030,2019-10-28,232.1583333333334,,232.1583333333334
1030,2019-10-29,176.23333333333335,,176.23333333333335
1030,2019-10-30,60.112500000000004,,60.112500000000004
1030,2019-10-31,14.341666666666667,,14.341666666666667
1030,2019-11-01,21.941666666666666,,21.941666666666666
1030,2019-11-02,48.57916666666667,,48.57916666666667
1030,2019-11-03,86.16250000000001,,86.16250000000001
1030,2019-11-04,125.62916666666668,,125.62916666666668
1030,2019-11-05,52.04583333333334,,52.04583333333334
1030,2019-11-06,199.28750000000002,,199.28750000000002
1030,2019-11-07,32.44583333333333,,32.44583333333333
1030,2019-11-08,98.575,,98.575
1030,2019-11-09,99.03750000000001,,99.03750000000001
1030,2019-11-10,41.40833333333333,,41.40833333333333
1030,2019-11-11,2.1125000000000003,,2.1125000000000003
1030,2019-11-12,0.12916666666666668,,0.12916666666666668
1030,2019-11-13,0.15416666666666665,,0.15416666666666665
1030,2019-11-14,1.3499999999999999,,1.3499999999999999
1030,2019-11-15,23.40833333333333,,23.40833333333333
1030,2019-11-16,82.07916666666665,,82.07916666666665
1030,2019-11-17,141.32916666666662,,141.32916666666662
1030,2019-11-18,70.29583333333333,,70.29583333333333
1030,2019-11-19,66.12083333333332,,66.12083333333332
1030,2019-11-20,35.75416666666667,,35.75416666666667
1030,2019-11-21,65.675,,65.675
1030,2019-11-22,36.88333333333333,,36.88333333333333
1030,2019-11-23,102.74583333333332,,102.74583333333332
1030,2019-11-24,124.20416666666667,,124.20416666666667
1030,2019-11-25,47.2875,,47.2875
1030,2019-11-26,105.97499999999998,,105.97499999999998
1030,2019-11-27,24.083333333333332,,24.083333333333332
1030,2019-11-28,29.40833333333333,,29.40833333333333
1030,2019-11-29,18.204166666666662,,18.204166666666662
1030,2019-11-30,73.77499999999999,,73.77499999999999
1030,2019-12-01,6.462500000000001,,6.462500000000001
1030,2019-12-02,0.0,,0.0
1030,2019-12-03,1.7541666666666664,,1.7541666666666664
1030,2019-12-04,9.583333333333334,,9.583333333333334
1030,2019-12-05,5.0375,,5.0375
1030,2019-12-06,0.65,,0.65
1030,2019-12-07,13.437500000000002,,13.437500000000002
1030,2019-12-08,33.92083333333333,,33.92083333333333
1030,2019-12-09,31.883333333333336,,31.883333333333336
1030,2019-12-10,9.333333333333332,,9.333333333333332
1030,2019-12-11,12.620833333333332,,12.620833333333332
1030,2019-12-12,46.37083333333333,,46.37083333333333
1030,2019-12-13,87.3125,,87.3125
1030,2019-12-14,12.799999999999999,,12.799999999999999
1030,2019-12-15,75.43749999999999,,75.43749999999999
1030,2019-12-16,96.62083333333332,,96.62083333333332
1030,2019-12-17,2.983333333333333,,2.983333333333333
1030,2019-12-18,6.708333333333335,,6.708333333333335
1030,2019-12-19,3.1249999999999996,,3.1249999999999996
1030,2019-12-20,5.674999999999998,,5.674999999999998
1030,2019-12-21,14.733333333333336,,14.733333333333336
1030,2019-12-22,98.65833333333335,,98.65833333333335
1030,2019-12-23,104.29166666666667,,104.29166666666667
1030,2019-12-24,65.83333333333333,,65.83333333333333
1030,2019-12-25,83.07916666666668,,83.07916666666668
1030,2019-12-26,31.60416666666667,,31.60416666666667
1030,2019-12-27,23.929166666666674,,23.929166666666674
1030,2019-12-28,60.47083333333334,,60.47083333333334
1030,2019-12-29,21.641666666666666,,21.641666666666666
1030,2019-12-30,56.66666666666666,,56.66666666666666
1030,2019-12-31,22.808333333333337,,22.808333333333337
1030,2020-01-01,45.20416666666666,,45.20416666666666
1030,2020-01-02,85.325,,85.325
1030,2020-01-03,16.175,,16.175
1030,2020-01-04,12.391666666666667,,12.391666666666667
1030,2020-01-05,52.1625,,52.1625
1030,2020-01-06,59.5625,,59.5625
1030,2020-01-07,47.54583333333333,,47.54583333333333
1030,2020-01-08,20.125,,20.125
1030,2020-01-09,36.19166666666667,,36.19166666666667
1030,2020-01-10,21.666666666666668,,21.666666666666668
1030,2020-01-11,21.758333333333336,,21.758333333333336
1030,2020-01-12,23.52916666666667,,23.52916666666667
1030,2020-01-13,19.2625,,19.2625
1030,2020-01-14,73.44166666666665,,73.44166666666665
1030,2020-01-15,39.25833333333334,,39.25833333333334
1030,2020-01-16,24.879166666666674,,24.879166666666674
1030,2020-01-17,56.32916666666666,,56.32916666666666
1030,2020-01-18,5.279166666666667,,5.279166666666667
1030,2020-01-19,4.3374999999999995,,4.3374999999999995
1030,2020-01-20,34.833333333333336,,34.833333333333336
1030,2020-01-21,36.87916666666667,,36.87916666666667
1030,2020-01-22,78.50416666666666,,78.50416666666666
1030,2020-01-23,89.69583333333333,,89.69583333333333
1030,2020-01-24,116.66666666666667,,116.66666666666667
1030,2020-01-25,19.620833333333334,,19.620833333333334
1030,2020-01-26,27.1375,,27.1375
1030,2020-01-27,28.391666666666662,,28.391666666666662
1030,2020-01-28,20.658333333333335,,20.658333333333335
1030,2020-01-29,67.02083333333333,,67.02083333333333
1030,2020-01-30,120.74166666666666,,120.74166666666666
1030,2020-01-31,57.86666666666665,,57.86666666666665
1030,2020-02-01,76.60000000000001,,76.60000000000001
1030,2020-02-02,34.079166666666666,,34.079166666666666
1030,2020-02-03,138.84166666666667,,138.84166666666667
1030,2020-02-04,31.212500000000002,,31.212500000000002
1030,2020-02-05,85.55833333333334,,85.55833333333334
1030,2020-02-06,1.1583333333333334,,1.1583333333333334
1030,2020-02-07,0.13333333333333333,,0.13333333333333333
1030,2020-02-08,0.8166666666666668,,0.8166666666666668
1030,2020-02-09,40.425,,40.425
1030,2020-02-10,60.64166666666667,,60.64166666666667
1030,2020-02-11,72.80416666666666,,72.80416666666666
1030,2020-02-12,150.92500000000004,,150.92500000000004
1030,2020-02-13,34.708333333333336,,34.708333333333336
1030,2020-02-14,30.20833333333334,,30.20833333333334
1030,2020-02-15,142.64166666666665,,142.64166666666665
1030,2020-02-16,81.88749999999999,,81.88749999999999
1030,2020-02-17,183.7583333333333,,183.7583333333333
1030,2020-02-18,61.645833333333336,,61.645833333333336
1030,2020-02-19,60.070833333333326,,60.070833333333326
1030,2020-02-20,47.237500000000004,,47.237500000000004
1030,2020-02-21,251.64166666666668,,251.64166666666668
1030,2020-02-22,242.61249999999998,,242.61249999999998
1030,2020-02-23,237.57500000000002,,237.57500000000002
1030,2020-02-24,163.6,,163.6
1030,2020-02-25,21.008333333333333,,21.008333333333333
1030,2020-02-26,20.504166666666666,,20.504166666666666
1030,2020-02-27,67.3625,,67.3625
1030,2020-02-28,181.24166666666667,,181.24166666666667
1030,2020-02-29,8.275,,8.275
1030,2020-03-01,174.45833333333337,,174.45833333333337
1030,2020-03-02,46.14583333333334,,46.14583333333334
1030,2020-03-03,52.725,,52.725
1030,2020-03-04,188.29166666666666,,188.29166666666666
1030,2020-03-05,292.675,,292.675
1030,2020-03-06,55.67083333333333,,55.67083333333333
1030,2020-03-07,193.5916666666667,,193.5916666666667
1030,2020-03-08,301.1583333333333,,301.1583333333333
1030,2020-03-09,262.65416666666664,,262.65416666666664
1030,2020-03-10,45.41666666666668,,45.41666666666668
1030,2020-03-11,181.05833333333337,,181.05833333333337
1030,2020-03-12,108.22083333333335,,108.22083333333335
1030,2020-03-13,57.691666666666656,,57.691666666666656
1030,2020-03-14,93.69166666666668,,93.69166666666668
1030,2020-03-15,322.7625,,322.7625
1030,2020-03-16,271.53333333333336,,271.53333333333336
1030,2020-03-17,85.21666666666667,,85.21666666666667
1030,2020-03-18,166.86666666666665,,166.86666666666665
1030,2020-03-19,97.64166666666667,,97.64166666666667
1030,2020-03-20,118.15833333333332,,118.15833333333332
1030,2020-03-21,286.6458333333333,,286.6458333333333
1030,2020-03-22,322.8541666666667,,322.8541666666667
1030,2020-03-23,52.26666666666666,,52.26666666666666
1030,2020-03-24,99.925,,99.925
1030,2020-03-25,145.82916666666668,,145.82916666666668
1030,2020-03-26,178.2833333333334,,178.2833333333334
1030,2020-03-27,243.92916666666667,,243.92916666666667
1030,2020-03-28,47.975,,47.975
1030,2020-03-29,144.58333333333334,,144.58333333333334
1030,2020-03-30,90.19166666666668,,90.19166666666668
1030,2020-03-31,56.725,,56.725
1030,2020-04-01,335.27916666666664,,335.27916666666664
1030,2020-04-02,335.66666666666663,,335.66666666666663
1030,2020-04-03,108.05833333333335,,108.05833333333335
1030,2020-04-04,74.9625,,74.9625
1030,2020-04-05,185.4041666666666,,185.4041666666666
1030,2020-04-06,318.15833333333336,,318.15833333333336
1030,2020-04-07,234.3708333333333,,234.3708333333333
1030,2020-04-08,141.3375,,141.3375
1030,2020-04-09,208.14166666666668,,208.14166666666668
1030,2020-04-10,189.225,,189.225
1030,2020-04-11,270.2666666666667,,270.2666666666667
1030,2020-04-12,158.43750000000003,,158.43750000000003
1030,2020-04-13,45.25833333333333,,45.25833333333333
1030,2020-04-14,301.2,,301.2
1030,2020-04-15,185.51249999999996,,185.51249999999996
1030,2020-04-16,175.08749999999998,,175.08749999999998
1030,2020-04-17,178.09583333333333,,178.09583333333333
1030,2020-04-18,249.89999999999998,,249.89999999999998
1030,2020-04-19,116.53749999999998,,116.53749999999998
1030,2020-04-20,331.4166666666667,,331.4166666666667
1030,2020-04-21,0.0,,0.0
1030,2020-04-22,295.65833333333336,,295.65833333333336
1030,2020-04-23,152.38750000000002,,152.38750000000002
1030,2020-04-24,118.37500000000001,,118.37500000000001
1030,2020-04-25,348.6666666666667,,348.6666666666667
1030,2020-04-26,44.0375,,44.0375
1030,2020-04-27,232.78333333333333,,232.78333333333333
1030,2020-04-28,179.4125,,179.4125
1030,2020-04-29,147.47916666666666,,147.47916666666666
1030,2020-04-30,40.166666666666664,,40.166666666666664
1030,2020-05-01,84.725,,84.725
1030,2020-05-02,186.6541666666666,,186.6541666666666
1030,2020-05-03,330.425,,330.425
1030,2020-05-04,162.1916666666667,,162.1916666666667
1030,2020-05-05,309.19166666666666,,309.19166666666666
1030,2020-05-06,284.6708333333333,,284.6708333333333
1030,2020-05-07,234.17500000000004,,234.17500000000004
1030,2020-05-08,241.64999999999998,,241.64999999999998
1030,2020-05-09,196.23333333333332,,196.23333333333332
1030,2020-05-10,152.86666666666667,,152.86666666666667
1030,2020-05-11,98.03750000000001,,98.03750000000001
1030,2020-05-12,240.07916666666668,,240.07916666666668
1030,2020-05-13,363.30416666666673,,363.30416666666673
1030,2020-05-14,170.55416666666665,,170.55416666666665
1030,2020-05-15,154.3166666666667,,154.3166666666667
1030,2020-05-16,327.7583333333333,,327.7583333333333
1030,2020-05-17,225.5583333333333,,225.5583333333333
1030,2020-05-18,76.93333333333334,,76.93333333333334
1030,2020-05-19,279.5125,,279.5125
1030,2020-05-20,376.72083333333325,,376.72083333333325
1030,2020-05-21,374.6541666666667,,374.6541666666667
1030,2020-05-22,353.59583333333336,,353.59583333333336
1030,2020-05-23,308.76666666666665,,308.76666666666665
1030,2020-05-24,263.18750000000006,,263.18750000000006
1030,2020-05-25,344.87083333333334,,344.87083333333334
1030,2020-05-26,321.0083333333333,,321.0083333333333
1030,2020-05-27,229.7791666666667,,229.7791666666667
1030,2020-05-28,174.9916666666667,,174.9916666666667
1030,2020-05-29,124.95833333333333,,124.95833333333333
1030,2020-05-30,172.68333333333337,,172.68333333333337
1030,2020-05-31,311.30833333333334,,311.30833333333334
1030,2020-06-01,351.4083333333333,,351.4083333333333
1030,2020-06-02,205.5625,,205.5625
1030,2020-06-03,171.07499999999996,,171.07499999999996
1030,2020-06-04,354.125,,354.125
1030,2020-06-05,342.65000000000003,,342.65000000000003
1030,2020-06-06,329.22083333333336,,329.22083333333336
1030,2020-06-07,372.29583333333335,,372.29583333333335
1030,2020-06-08,365.0916666666667,,365.0916666666667
1030,2020-06-09,352.04166666666674,,352.04166666666674
1030,2020-06-10,256.2375,,256.2375
1030,2020-06-11,263.48749999999995,,263.48749999999995
1030,2020-06-12,371.9166666666667,,371.9166666666667
1030,2020-06-13,360.8208333333334,,360.8208333333334
1030,2020-06-14,352.67083333333335,,352.67083333333335
1030,2020-06-15,366.4208333333334,,366.4208333333334
1030,2020-06-16,367.6041666666667,,367.6041666666667
1030,2020-06-17,362.23749999999995,,362.23749999999995
1030,2020-06-18,341.275,,341.275
1030,2020-06-19,296.2958333333333,,296.2958333333333
1030,2020-06-20,348.88333333333327,,348.88333333333327
1030,2020-06-21,307.49999999999994,,307.49999999999994
1030,2020-06-22,207.14583333333337,,207.14583333333337
1030,2020-06-23,198.32916666666665,,198.32916666666665
1030,2020-06-24,172.92083333333335,,172.92083333333335
1030,2020-06-25,262.74583333333334,,262.74583333333334
1030,2020-06-26,312.9541666666666,,312.9541666666666
1030,2020-06-27,265.22499999999997,,265.22499999999997
1030,2020-06-28,306.81666666666666,,306.81666666666666
1030,2020-06-29,348.3208333333334,,348.3208333333334
1030,2020-06-30,280.85,,280.85
1030,2020-07-01,356.8208333333334,,356.8208333333334
1030,2020-07-02,343.01666666666665,,343.01666666666665
1030,2020-07-03,339.67083333333335,,339.67083333333335
1030,2020-07-04,358.6958333333334,,358.6958333333334
1030,2020-07-05,310.9625,,310.9625
1030,2020-07-06,343.93333333333334,,343.93333333333334
1030,2020-07-07,326.4833333333333,,326.4833333333333
1030,2020-07-08,285.18333333333334,,285.18333333333334
1030,2020-07-09,343.05,,343.05
1030,2020-07-10,341.6666666666667,,341.6666666666667
1030,2020-07-11,117.92083333333335,,117.92083333333335
1030,2020-07-12,280.22499999999997,,280.22499999999997
1030,2020-07-13,204.45000000000002,,204.45000000000002
1030,2020-07-14,309.3041666666666,,309.3041666666666
1030,2020-07-15,338.5791666666667,,338.5791666666667
1030,2020-07-16,80.10416666666667,,80.10416666666667
1030,2020-07-17,342.2,,342.2
1030,2020-07-18,346.1083333333333,,346.1083333333333
1030,2020-07-19,219.37083333333337,,219.37083333333337
1030,2020-07-20,274.6458333333333,,274.6458333333333
1030,2020-07-21,271.64166666666665,,271.64166666666665
1030,2020-07-22,156.11249999999998,,156.11249999999998
1030,2020-07-23,239.11666666666667,,239.11666666666667
1030,2020-07-24,311.11666666666673,,311.11666666666673
1030,2020-07-25,328.28333333333325,,328.28333333333325
1030,2020-07-26,296.1458333333333,,296.1458333333333
1030,2020-07-27,121.06666666666668,,121.06666666666668
1030,2020-07-28,340.85416666666674,,340.85416666666674
1030,2020-07-29,251.0916666666667,,251.0916666666667
1030,2020-07-30,333.0208333333333,,333.0208333333333
1030,2020-07-31,309.175,,309.175
1030,2020-08-01,305.58750000000003,,305.58750000000003
1030,2020-08-02,204.375,,204.375
1030,2020-08-03,239.15,,239.15
1030,2020-08-04,137.78333333333333,,137.78333333333333
1030,2020-08-05,292.49583333333334,,292.49583333333334
1030,2020-08-06,342.57916666666665,,342.57916666666665
1030,2020-08-07,299.72499999999997,,299.72499999999997
1030,2020-08-08,261.7250000000001,,261.7250000000001
1030,2020-08-09,312.2708333333333,,312.2708333333333
1030,2020-08-10,315.5750000000001,,315.5750000000001
1030,2020-08-11,249.07500000000002,,249.07500000000002
1030,2020-08-12,315.24583333333334,,315.24583333333334
1030,2020-08-13,336.2791666666667,,336.2791666666667
1030,2020-08-14,343.5041666666666,,343.5041666666666
1030,2020-08-15,247.275,,247.275
1030,2020-08-16,134.48333333333335,,134.48333333333335
1030,2020-08-17,201.79583333333332,,201.79583333333332
1030,2020-08-18,249.88750000000002,,249.88750000000002
1030,2020-08-19,326.0125,,326.0125
1030,2020-08-20,323.85416666666663,,323.85416666666663
1030,2020-08-21,259.37500000000006,,259.37500000000006
1030,2020-08-22,262.06249999999994,,262.06249999999994
1030,2020-08-23,316.8625,,316.8625
1030,2020-08-24,267.3291666666667,,267.3291666666667
1030,2020-08-25,295.13750000000005,,295.13750000000005
1030,2020-08-26,244.97500000000002,,244.97500000000002
1030,2020-08-27,175.42500000000004,,175.42500000000004
1030,2020-08-28,179.24166666666667,,179.24166666666667
1030,2020-08-29,155.14166666666668,,155.14166666666668
1030,2020-08-30,301.0916666666667,,301.0916666666667
1030,2020-08-31,327.99166666666673,,327.99166666666673
1030,2020-09-01,206.44166666666663,,206.44166666666663
1030,2020-09-02,170.11249999999998,,170.11249999999998
1030,2020-09-03,260.22916666666674,,260.22916666666674
1030,2020-09-04,327.89166666666665,,327.89166666666665
1030,2020-09-05,154.35833333333332,,154.35833333333332
1030,2020-09-06,310.7708333333333,,310.7708333333333
1030,2020-09-07,107.14999999999999,,107.14999999999999
1030,2020-09-08,160.01250000000002,,160.01250000000002
1030,2020-09-09,160.3791666666667,,160.3791666666667
1030,2020-09-10,82.72083333333332,,82.72083333333332
1030,2020-09-11,139.67916666666667,,139.67916666666667
1030,2020-09-12,290.0833333333333,,290.0833333333333
1030,2020-09-13,140.825,,140.825
1030,2020-09-14,267.6875,,267.6875
1030,2020-09-15,250.22500000000005,,250.22500000000005
1030,2020-09-16,253.4958333333333,,253.4958333333333
1030,2020-09-17,233.01250000000005,,233.01250000000005
1030,2020-09-18,296.3,,296.3
1030,2020-09-19,322.0125,,322.0125
1030,2020-09-20,286.78333333333325,,286.78333333333325
1030,2020-09-21,315.55,,315.55
1030,2020-09-22,270.9458333333334,,270.9458333333334
1030,2020-09-23,301.6791666666666,,301.6791666666666
1030,2020-09-24,180.04583333333332,,180.04583333333332
1030,2020-09-25,263.93749999999994,,263.93749999999994
1030,2020-09-26,269.7541666666667,,269.7541666666667
1030,2020-09-27,269.50833333333327,,269.50833333333327
1030,2020-09-28,211.05416666666667,,211.05416666666667
1030,2020-09-29,76.26249999999999,,76.26249999999999
1030,2020-09-30,93.14583333333336,,93.14583333333336
1030,2020-10-01,189.17500000000004,,189.17500000000004
1030,2020-10-02,153.725,,153.725
1030,2020-10-03,215.39166666666665,,215.39166666666665
1030,2020-10-04,162.73749999999995,,162.73749999999995
1030,2020-10-05,152.35833333333335,,152.35833333333335
1030,2020-10-06,174.73333333333332,,174.73333333333332
1030,2020-10-07,154.35,,154.35
1030,2020-10-08,163.525,,163.525
1030,2020-10-09,266.6208333333334,,266.6208333333334
1030,2020-10-10,202.775,,202.775
1030,2020-10-11,182.6916666666667,,182.6916666666667
1030,2020-10-12,205.35416666666666,,205.35416666666666
1030,2020-10-13,230.53750000000002,,230.53750000000002
1030,2020-10-14,265.99999999999994,,265.99999999999994
1030,2020-10-15,69.475,,69.475
1030,2020-10-16,180.49166666666667,,180.49166666666667
1030,2020-10-17,145.85833333333332,,145.85833333333332
1030,2020-10-18,43.80416666666667,,43.80416666666667
1030,2020-10-19,18.38333333333333,,18.38333333333333
1030,2020-10-20,76.85416666666664,,76.85416666666664
1030,2020-10-21,39.63750000000001,,39.63750000000001
1030,2020-10-22,39.23333333333334,,39.23333333333334
1030,2020-10-23,214.15833333333333,,214.15833333333333
1030,2020-10-24,108.25833333333331,,108.25833333333331
1030,2020-10-25,100.01249999999999,,100.01249999999999
1030,2020-10-26,41.06249999999999,,41.06249999999999
1030,2020-10-27,64.25416666666668,,64.25416666666668
1030,2020-10-28,75.42083333333333,,75.42083333333333
1030,2020-10-29,20.07083333333333,,20.07083333333333
1030,2020-10-30,38.012499999999996,,38.012499999999996
1030,2020-10-31,214.82916666666668,,214.82916666666668
1030,2020-11-01,63.95416666666668,,63.95416666666668
1030,2020-11-02,94.62083333333335,,94.62083333333335
1030,2020-11-03,42.31666666666666,,42.31666666666666
1030,2020-11-04,144.14999999999998,,144.14999999999998